SXM-10

Last updated on Tue Sep 22 2026 00:03:16 GMT+0000 (Coordinated Universal Time)

1 64290U 25122A 26264.03840203 -.00000021 00000+0 00000+0 0 9995 2 64290 0.0290 39.1104 0001525 315.5803 262.9222 1.00273386 4649
UTC large
Height (km)
Speed (km/s)
/
Latitude / Longitude
Inclination (degrees)
Orbital Period (minutes)
Azimuth
Elevation
Range (km)
Doppler Factor

Next 0 passes for location: London (51.5072 / 0.1276)

No passes found over London.
SXM-10